FW6725 Weather Reports


Display with metric or nautical units.
time (UTC)temp
F
wind
direction
speed
MPH
gust
MPH
rain 1hr
in
rain 24hr
in
rain mn
in
humidity
%
barometer
mb
20260509141527 55 113 11.0 17.0 0.00 0.00 0.00 22 1025.8
20260509140526 55 110 10.0 17.0 0.00 0.00 0.00 21 1025.9
20260509135525 55 106 9.0 17.0 0.00 0.00 0.00 21 1026.0
20260509134524 54 115 10.0 17.0 0.00 0.00 0.00 21 1026.1
20260509133523 55 119 10.0 18.0 0.00 0.00 0.00 21 1026.2
20260509132522 55 117 11.0 19.0 0.00 0.00 0.00 21 1026.2
20260509131521 55 119 11.0 19.0 0.00 0.00 0.00 21 1026.3
20260509130520 55 120 10.0 17.0 0.00 0.00 0.00 22 1026.4
20260509125519 55 125 10.0 19.0 0.00 0.00 0.00 22 1026.5
20260509124518 55 116 11.0 18.0 0.00 0.00 0.00 22 1026.5
20260509123517 55 111 10.0 16.0 0.00 0.00 0.00 21 1026.7
20260509122516 55 117 11.0 18.0 0.00 0.00 0.00 22 1026.7
20260509121545 55 120 11.0 18.0 0.00 0.00 0.00 21 1026.8
20260509120544 55 126 9.0 16.0 0.00 0.00 0.00 21 1026.9
20260509115543 56 123 10.0 16.0 0.00 0.00 0.00 21 1027.0
20260509114542 56 117 10.0 16.0 0.00 0.00 0.00 22 1027.1
20260509113542 56 112 9.0 16.0 0.00 0.00 0.00 22 1027.1
20260509112542 56 111 10.0 17.0 0.00 0.00 0.00 21 1027.1
20260509111540 56 104 11.0 21.0 0.00 0.00 0.00 21 1027.2
20260509110540 56 101 11.0 20.0 0.00 0.00 0.00 20 1027.3
20260509105539 57 93 11.0 19.0 0.00 0.00 0.00 20 1027.4
20260509104538 55 111 11.0 17.0 0.00 0.00 0.00 20 1027.5
20260509103537 56 92 10.0 17.0 0.00 0.00 0.00 22 1027.6
20260509102536 55 111 10.0 16.0 0.00 0.00 0.00 22 1027.6
20260509101615 56 98 11.0 17.0 0.00 0.00 0.00 22 1027.7
20260509100554 56 96 10.0 18.0 0.00 0.00 0.00 23 1027.7
20260509095533 56 97 10.0 18.0 0.00 0.00 0.00 24 1027.8
20260509094552 56 97 9.0 17.0 0.00 0.00 0.00 23 1027.9
20260509093551 54 116 8.0 15.0 0.00 0.00 0.00 25 1028.0
20260509092550 54 99 10.0 16.0 0.00 0.00 0.00 25 1028.1
20260509091529 54 123 8.0 16.0 0.00 0.00 0.00 26 1028.1
20260509090528 54 106 7.0 11.0 0.00 0.00 0.00 26 1028.3
20260509085527 54 112 8.0 14.0 0.00 0.00 0.00 27 1028.4
20260509084526 53 113 6.0 11.0 0.00 0.00 0.00 27 1028.4
20260509083525 53 145 7.0 14.0 0.00 0.00 0.00 29 1028.5
20260509082524 52 154 7.0 14.0 0.00 0.00 0.00 29 1028.5
20260509081523 52 128 7.0 12.0 0.00 0.00 0.00 30 1028.6
20260509080522 52 138 6.0 12.0 0.00 0.00 0.00 32 1028.7
20260509075602 52 132 7.0 13.0 0.00 0.00 0.00 30 1028.7
20260509074520 52 110 8.0 14.0 0.00 0.00 0.00 31 1028.8
20260509073520 52 105 9.0 14.0 0.00 0.00 0.00 31 1028.7
20260509072518 52 114 9.0 16.0 0.00 0.00 0.00 33 1028.7
20260509071538 52 121 6.0 13.0 0.00 0.00 0.00 34 1028.7
20260509070546 52 123 6.0 10.0 0.00 0.00 0.00 35 1028.7
20260509065605 51 127 7.0 11.0 0.00 0.00 0.00 36 1028.8
20260509064529 51 95 5.0 10.0 0.00 0.00 0.00 38 1028.9
20260509063044 51 81 5.0 8.0 0.00 0.00 0.00 40 1028.9
20260509062102 50 112 4.0 6.0 0.00 0.00 0.00 41 1028.9
20260509061101 50 97 4.0 6.0 0.00 0.00 0.00 42 1028.9
20260509060039 50 88 4.0 7.0 0.00 0.00 0.00 43 1028.9
20260509055038 49 76 4.0 6.0 0.00 0.00 0.00 43 1028.8
20260509054036 49 91 5.0 7.0 0.00 0.00 0.00 43 1028.8
20260509053035 49 85 5.0 7.0 0.00 0.00 0.00 43 1028.8
20260509052035 48 91 5.0 7.0 0.00 0.00 0.00 44 1028.8
20260509051033 48 93 4.0 6.0 0.00 0.00 0.00 44 1028.8
20260509050032 47 87 4.0 6.0 0.00 0.00 0.00 46 1028.8
20260509045032 46 91 4.0 6.0 0.00 0.00 0.00 47 1028.8
20260509044031 47 85 4.0 6.0 0.00 0.00 0.00 46 1028.7
20260509043030 47 81 4.0 6.0 0.00 0.00 0.00 44 1028.7
20260509042031 47 76 5.0 7.0 0.00 0.00 0.00 43 1028.7
20260509041029 46 75 4.0 8.0 0.00 0.00 0.00 44 1028.6
20260509040028 45 71 5.0 8.0 0.00 0.00 0.00 45 1028.6
20260509034047 45 72 3.0 5.0 0.00 0.00 0.00 47 1028.5
20260509033025 42 63 3.0 4.0 0.00 0.00 0.00 54 1028.5
20260509032024 45 65 3.0 4.0 0.00 0.00 0.00 45 1028.4
20260509031022 45 72 3.0 4.0 0.00 0.00 0.00 43 1028.4
20260509030043 44 76 2.0 3.0 0.00 0.00 0.00 44 1028.3
20260509025023 43 78 2.0 4.0 0.00 0.00 0.00 46 1028.2
20260509024021 42 78 4.0 5.0 0.00 0.00 0.00 48 1028.2
20260509023059 42 84 4.0 5.0 0.00 0.00 0.00 49 1028.2
20260509022018 42 95 3.0 4.0 0.00 0.00 0.00 49 1028.2
20260509021017 42 95 3.0 4.0 0.00 0.00 0.00 50 1028.1
20260509020016 40 103 4.0 5.0 0.00 0.00 0.00 57 1028.1
20260509015045 40 103 4.0 6.0 0.00 0.00 0.00 56 1028.1
20260509014105 42 87 4.0 5.0 0.00 0.00 0.00 50 1028.0
20260509013044 43 90 4.0 5.0 0.00 0.00 0.00 48 1028.0
20260509012103 42 88 3.0 4.0 0.00 0.00 0.00 51 1027.9
20260509011041 42 85 4.0 5.0 0.00 0.00 0.00 53 1027.9
20260509010040 43 92 4.0 5.0 0.00 0.00 0.00 50 1028.0
20260509005040 42 89 4.0 5.0 0.00 0.00 0.00 51 1027.9
20260509004039 40 85 4.0 6.0 0.00 0.00 0.00 59 1027.8
20260509003037 40 99 3.0 6.0 0.00 0.00 0.00 55 1027.8
20260509002036 43 77 2.0 2.0 0.00 0.00 0.00 47 1027.7
20260509001037 43 44 2.0 3.0 0.00 0.00 0.00 47 1027.7
20260509000036 43 45 2.0 3.0 0.00 0.00 0.00 46 1027.7
20260508235054 43 66 2.0 3.0 0.00 0.00 0.00 47 1027.7
20260508234032 43 61 2.0 4.0 0.00 0.00 0.00 50 1027.7
20260508233033 42 79 3.0 3.0 0.00 0.00 0.00 51 1027.6
20260508232034 43 102 3.0 4.0 0.00 0.00 0.00 49 1027.6
20260508231052 42 95 4.0 5.0 0.00 0.00 0.00 57 1027.5
20260508230030 40 103 4.0 5.0 0.00 0.00 0.00 64 1027.5
20260508225029 41 116 3.0 4.0 0.00 0.00 0.00 56 1027.5
20260508224027 42 97 3.0 6.0 0.00 0.00 0.00 53 1027.4
20260508223026 41 98 3.0 6.0 0.00 0.00 0.00 55 1027.4
20260508222045 43 277 2.0 6.0 0.00 0.00 0.00 48 1027.4
20260508221024 42 139 3.0 6.0 0.00 0.00 0.00 48 1027.4
20260508220024 43 117 3.0 4.0 0.00 0.00 0.00 47 1027.4
20260508215023 42 129 2.0 3.0 0.00 0.00 0.00 50 1027.4
20260508214022 46 251 2.0 4.0 0.00 0.00 0.00 41 1027.4
20260508213021 47 263 3.0 5.0 0.00 0.00 0.00 39 1027.4
20260508212040 47 268 4.0 5.0 0.00 0.00 0.00 39 1027.3
20260508211038 48 263 4.0 5.0 0.00 0.00 0.00 38 1027.3
20260508210017 47 267 4.0 4.0 0.00 0.00 0.00 39 1027.2
20260508205018 47 273 3.0 6.0 0.00 0.00 0.00 39 1027.1
20260508204046 48 257 5.0 8.0 0.00 0.00 0.00 38 1027.1
20260508203045 48 242 7.0 9.0 0.00 0.00 0.00 37 1027.1
20260508202044 48 235 6.0 8.0 0.00 0.00 0.00 37 1027.0
20260508201043 47 216 6.0 8.0 0.00 0.00 0.00 39 1027.0
20260508200043 48 195 5.0 8.0 0.00 0.00 0.00 35 1027.0
20260508195041 47 166 4.0 6.0 0.00 0.00 0.00 39 1026.9
20260508194040 46 136 3.0 4.0 0.00 0.00 0.00 41 1026.7
20260508193039 46 120 3.0 5.0 0.00 0.00 0.00 40 1026.6
20260508192038 47 144 3.0 5.0 0.00 0.00 0.00 40 1026.6
20260508191038 48 178 3.0 5.0 0.00 0.00 0.00 37 1026.5
20260508190037 49 188 4.0 8.0 0.00 0.00 0.00 36 1026.6
20260508185035 49 176 5.0 8.0 0.00 0.00 0.00 36 1026.5
20260508184034 49 169 4.0 8.0 0.00 0.00 0.00 36 1026.6
20260508183033 50 167 5.0 7.0 0.00 0.00 0.00 35 1026.5
20260508182032 50 143 4.0 6.0 0.00 0.00 0.00 35 1026.5
20260508181032 51 151 4.0 10.0 0.00 0.00 0.00 34 1026.3
20260508180031 51 157 5.0 10.0 0.00 0.00 0.00 33 1026.2
20260508175030 52 140 5.0 9.0 0.00 0.00 0.00 32 1026.1
20260508174029 53 167 6.0 11.0 0.00 0.00 0.00 32 1026.0
20260508173027 55 94 4.0 11.0 0.00 0.00 0.00 26 1025.9
20260508172026 56 16 5.0 7.0 0.00 0.00 0.00 19 1025.7
20260508171047 56 5 5.0 8.0 0.00 0.00 0.00 19 1025.7
20260508170025 57 53 4.0 8.0 0.00 0.00 0.00 19 1025.6
20260508165024 57 48 5.0 10.0 0.00 0.00 0.00 19 1025.6
20260508164022 57 55 5.0 10.0 0.00 0.00 0.00 19 1025.5
20260508163021 57 39 5.0 10.0 0.00 0.00 0.00 19 1025.5
20260508162022 57 2 5.0 10.0 0.00 0.00 0.00 19 1025.3
20260508161020 57 31 6.0 14.0 0.00 0.00 0.00 19 1025.2
20260508160019 58 356 6.0 14.0 0.00 0.00 0.00 20 1025.2
20260508155018 58 340 6.0 11.0 0.00 0.00 0.00 19 1025.2
20260508154017 58 338 7.0 15.0 0.00 0.00 0.00 19 1025.2
20260508153016 58 318 6.0 10.0 0.00 0.00 0.00 19 1025.2
20260508152045 58 338 8.0 15.0 0.00 0.00 0.00 19 1025.2
20260508151104 57 3 6.0 10.0 0.00 0.00 0.00 16 1025.2
20260508150043 58 352 5.0 12.0 0.00 0.00 0.00 16 1025.2
20260508145123 57 356 9.0 15.0 0.00 0.00 0.00 16 1025.2
20260508144042 58 5 5.0 11.0 0.00 0.00 0.00 17 1025.3
20260508143041 58 13 6.0 12.0 0.00 0.00 0.00 15 1025.3
20260508142100 58 7 7.0 16.0 0.00 0.00 0.00 18 1025.3